Wetbulb
34.60 35.86 37.12 38.81 40.66 41.26 41.08 42.01 44.04 46.15 47.50 50.05 53.43 56.09 58.58 59.55 60.26 60.57 60.48 60.35 59.47 59.09 59.24 58.60 58.21 58.65 58.11 58.03 57.69 57.15 56.09 55.46 52.76 54.46 55.80 53.83 49.05 47.80 42.03 42.57 41.85 42.62 43.02
32.16 34.35 35.10 35.79 38.21 36.83 36.56 37.86 40.19 41.28 43.22 45.20 48.54 52.71 55.69 57.67 59.05 59.20 59.44 59.85 59.42 58.92 58.84 58.60 58.10 58.33 57.91 58.17 57.66 56.84 56.60 56.71 55.00 53.32 54.61 48.46 48.24 42.98 42.23 40.65 39.83 40.80 40.86
30.19 32.54 33.26 33.30 34.20 34.46 33.67 35.12 36.97 37.56 38.81 40.96 43.57 46.02 49.45 53.23 56.74 57.96 58.41 58.67 58.93 59.30 59.12 58.59 58.47 58.29 57.36 57.69 57.62 57.06 56.80 56.45 56.32 54.81 54.08 39.56 36.77 37.45 36.76 35.69 36.36 36.42 38.14
28.24 30.15 31.06 30.82 31.14 32.47 31.35 32.68 34.30 35.91 36.63 37.91 39.87 41.66 44.17 46.86 50.34 53.52 54.66 56.47 58.07 58.50 58.68 58.64 58.55 58.06 57.61 57.48 57.00 56.73 56.38 55.62 55.15 54.32 52.91 39.34 36.63 33.40 34.14 34.08 33.02 32.79 33.10
25.93 27.65 28.20 27.97 28.48 28.49 28.07 29.46 31.16 33.69 35.32 36.85 37.83 39.31 40.45 41.99 44.31 45.94 46.31 47.91 49.32 51.88 56.28 57.38 57.55 54.11 47.46 52.76 56.26 56.18 55.45 54.29 52.90 49.91 37.64 35.63 34.82 33.04 35.15 34.59 34.36 32.42 32.07
24.02 23.75 25.56 23.74 23.64 24.10 25.10 25.87 27.13 30.03 33.52 35.42 36.09 37.20 38.11 39.57 40.66 40.80 41.44 42.58 43.77 45.95 48.36 50.60 50.70 43.37 45.40 43.35 43.71 44.04 48.35 52.80 50.45 44.96 40.99 37.68 37.39 37.86 34.18 33.99 32.67 32.28 32.84
21.71 22.75 21.33 20.75 20.71 21.44 22.63 23.22 24.08 26.22 29.95 33.05 34.91 36.13 37.34 39.00 40.06 40.46 39.63 40.84 41.21 42.38 43.65 45.28 44.25 42.66 39.69 43.39 42.07 41.92 42.23 43.89 47.06 46.67 40.52 40.71 37.33 37.88 35.10 33.07 32.91 33.31 34.14
19.34 18.24 18.28 18.38 18.35 19.68 20.17 20.84 21.60 23.48 25.95 29.90 33.58 35.19 36.05 37.28 39.17 39.66 38.73 39.64 40.01 40.54 41.53 41.35 40.99 41.59 40.62 39.55 39.58 37.69 37.20 36.55 38.33 39.60 39.83 38.49 37.51 37.76 37.80 35.74 34.83 32.07 30.97
15.69 15.60 16.45 16.76 16.90 17.62 17.85 18.38 19.46 21.39 24.43 27.69 31.92 33.43 34.09 35.38 37.95 38.53 38.27 36.99 36.19 36.22 37.13 38.01 38.46 37.59 39.13 39.38 36.57 34.88 33.08 32.88 36.82 38.74 39.20 39.95 39.84 39.01 36.52 34.99 33.14 33.43 29.03
14.10 14.52 15.14 15.60 15.39 15.07 15.94 17.25 19.11 20.98 23.63 26.68 30.36 33.19 33.84 34.33 36.80 37.53 37.68 35.49 34.48 35.15 36.03 35.13 34.40 35.76 37.63 38.98 36.03 34.87 34.19 33.51 33.04 33.09 33.26 35.92 36.35 36.44 36.90 33.75 35.07 34.45 30.00
12.47 12.82 12.66 13.24 13.67 15.17 16.39 17.32 17.89 19.45 22.74 25.88 30.17 32.86 33.97 34.65 35.20 37.10 37.88 35.26 34.51 34.41 34.47 34.95 35.12 36.43 37.87 38.77 38.59 34.12 35.29 33.52 34.75 32.79 32.17 32.09 32.14 32.07 32.12 32.60 32.85 34.01 31.61
10.89 10.08 10.23 11.74 13.71 16.28 15.47 16.74 19.29 21.20 23.56 27.26 30.04 31.86 33.89 34.85 34.79 35.73 36.98 37.37 37.31 34.49 33.91 34.79 34.49 36.33 37.53 38.75 37.84 36.69 37.52 34.19 32.73 32.05 31.54 30.77 30.60 30.27 30.51 31.00 31.08 31.02 31.06
7.39 7.55 9.69 12.39 14.24 15.00 15.16 16.38 18.06 20.66 24.99 27.80 28.91 29.25 31.06 33.74 34.74 35.37 36.00 36.56 36.45 34.94 34.57 34.35 35.76 36.35 37.80 37.36 38.12 37.09 33.81 32.57 32.24 31.39 30.63 29.30 29.52 29.54 29.66 29.39 29.71 30.11 29.96
5.74 8.05 11.02 11.33 11.85 13.81 16.18 18.43 20.91 24.96 22.99 22.44 21.82 23.76 28.70 31.69 33.43 33.52 32.70 32.48 32.49 33.36 33.51 33.29 34.70 34.34 34.55 33.31 32.45 32.95 31.73 32.02 31.95 31.22 28.59 28.29 28.82 28.51 27.87 28.58 27.78 28.04 27.43
6.51 8.63 10.24 11.12 11.29 12.34 14.46 17.12 19.58 21.35 24.09 21.83 20.51 22.85 23.46 27.22 31.41 33.96 33.16 31.85 31.98 32.39 31.80 31.13 30.08 29.29 28.53 28.46 28.53 28.88 29.46 29.86 28.78 28.19 27.72 27.13 27.07 27.15 26.59 27.67 27.20 26.33 25.17
5.02 7.73 9.11 10.18 10.65 11.60 11.84 12.50 18.75 21.20 22.95 23.65 23.87 23.44 22.70 26.39 29.10 30.01 29.22 29.97 31.99 32.52 27.09 25.14 24.18 24.46 23.98 24.41 24.41 24.65 25.04 26.24 27.13 27.18 26.79 26.63 25.79 25.53 25.11 25.56 25.92 25.12 24.31
3.36 6.56 7.33 8.73 9.13 8.81 9.22 9.54 8.71 13.17 18.06 19.60 21.57 20.74 22.86 23.28 23.59 24.48 24.46 22.91 22.80 20.11 15.97 16.24 16.23 16.98 18.34 19.81 21.68 22.08 21.96 23.75 25.93 25.97 25.84 25.52 25.39 25.05 24.45 24.08 24.25 23.77 22.90
1.69 5.65 5.76 6.53 7.43 7.34 7.82 8.15 8.47 7.86 6.99 8.36 15.44 17.25 18.13 20.14 20.48 20.06 18.84 14.91 9.47 10.90 9.70 8.91 9.22 10.63 11.93 13.02 14.79 15.99 17.49 18.69 20.12 20.57 21.55 22.30 23.66 23.62 23.09 22.87 22.87 21.99 22.02
1.80 4.31 4.49 4.49 5.51 6.18 6.42 6.73 7.28 6.75 6.27 6.21 7.13 12.47 10.52 15.53 15.61 15.15 13.80 6.09 4.89 4.89 6.14 6.18 6.86 7.20 7.62 8.78 10.05 11.69 12.26 12.54 13.61 14.44 14.98 15.50 16.33 19.15 18.40 18.77 19.97 20.25 19.82
-0.41 3.31 2.60 2.08 2.90 3.29 4.08 4.03 4.18 4.30 3.97 3.97 3.81 7.42 6.57 5.55 3.31 3.12 3.74 3.24 2.75 2.63 3.34 3.72 4.14 4.52 4.66 4.94 6.00 7.36 8.30 8.50 8.71 9.68 10.46 11.14 12.11 12.94 12.81 14.14 14.27 15.11 15.47
-3.05 -3.49 0.27 -0.88 1.04 2.23 2.03 1.68 2.53 2.36 1.70 1.66 2.13 5.00 12.58 2.48 1.47 1.24 1.18 0.97 0.72 0.49 0.85 1.82 2.14 1.98 2.33 2.40 2.64 2.99 3.83 4.35 4.75 5.16 6.13 7.04 8.11 8.01 9.67 11.05 11.64 12.34 12.24
-9.10 -8.48 -8.29 -7.17 -1.87 0.01 0.08 0.27 0.32 -0.04 0.01 -0.39 -0.01 1.57 7.63 0.99 0.31 -0.26 -0.23 0.01 -0.25 0.32 0.70 0.81 0.41 0.26 0.04 -0.17 0.06 0.10 0.31 0.40 1.11 1.89 3.03 4.25 5.11 5.60 6.29 7.10 7.75 8.60 9.23
-9.84 -9.97 -10.93 -9.96 -6.14 -2.44 -2.56 -2.33 -2.27 -2.28 -2.34 -2.00 -1.99 -1.80 -1.68 -1.92 -1.54 -1.64 -1.62 -0.96 -1.48 -1.41 -0.53 -0.48 -1.23 -2.13 -1.50 -1.49 -0.39 -0.62 -1.54 -1.09 0.82 1.90 1.17 1.38 2.20 2.68 3.42 3.41 3.98 4.29 5.29
-16.20 -14.32 -14.03 -15.41 -14.00 -8.32 -6.05 -5.66 -4.81 -4.55 -5.06 -4.79 -4.92 -4.68 -4.51 -4.43 -4.25 -3.87 -3.37 -3.01 -3.68 -3.69 -2.65 -2.92 -2.76 -3.84 -3.78 -3.68 -2.44 -1.95 -1.28 0.59 0.37 1.01 1.46 1.21 0.98 1.59 1.80 1.63 2.09 2.41 2.95
-20.77 -19.12 -17.73 -16.48 -19.52 -16.04 -12.35 -9.53 -8.42 -9.02 -8.31 -7.36 -7.51 -7.12 -6.98 -6.72 -6.58 -6.28 -5.91 -5.44 -6.44 -6.88 -6.18 -5.73 -5.17 -5.83 -6.07 -6.36 -5.57 -4.90 -2.54 -1.28 -0.42 0.95 1.20 1.18 1.01 0.38 0.09 0.10 0.22 0.57 0.82
-21.35 -21.24 -22.75 -21.48 -17.76 -18.37 -19.88 -17.51 -14.21 -12.75 -12.45 -10.43 -9.95 -10.04 -9.64 -9.50 -8.80 -8.62 -8.42 -8.34 -9.03 -9.00 -8.66 -7.79 -8.02 -8.94 -8.67 -7.54 -7.49 -3.23 -2.15 1.18 0.99 4.11 -0.59 -2.73 -4.12 -3.47 -3.83 -3.69 -3.43 -2.27 -1.74
MSLP
1020.29 1019.78 1019.34 1018.91 1018.46 1017.69 1016.94 1016.21 1015.49 1014.60 1013.55 1012.57 1011.79 1011.06 1010.23 1009.58 1009.23 1008.97 1008.71 1008.52 1008.39 1008.31 1008.29 1008.25 1008.02 1008.06 1008.20 1008.27 1008.44 1008.58 1008.80 1009.03 1008.42 1008.23 1008.35 1008.42 1008.86 1009.10 1009.52 1009.85 1010.15 1010.42 1010.63
1021.08 1020.42 1019.77 1019.30 1018.67 1018.32 1017.73 1016.93 1016.18 1015.24 1014.34 1013.46 1012.19 1011.20 1010.21 1009.41 1008.79 1008.39 1008.01 1007.72 1007.49 1007.28 1007.19 1007.20 1006.97 1007.20 1007.14 1007.17 1007.23 1007.26 1007.30 1007.51 1007.53 1007.10 1007.48 1007.96 1008.28 1008.66 1008.93 1009.55 1009.94 1010.22 1010.07
1021.57 1020.80 1020.28 1019.52 1018.68 1018.35 1017.87 1017.10 1016.43 1015.68 1014.82 1013.84 1012.99 1011.82 1010.79 1009.88 1008.84 1008.13 1007.63 1007.13 1006.68 1006.28 1006.16 1006.12 1005.96 1006.12 1005.92 1006.08 1006.07 1006.07 1006.16 1006.27 1006.32 1006.28 1006.32 1007.28 1008.22 1008.52 1009.02 1009.24 1009.70 1009.97 1010.10
1022.57 1021.93 1021.34 1020.27 1019.32 1018.71 1018.21 1017.36 1016.59 1015.82 1015.03 1014.15 1013.31 1012.41 1011.27 1010.20 1009.36 1008.58 1007.87 1007.04 1006.21 1005.66 1005.41 1005.26 1005.14 1005.07 1004.97 1005.03 1005.05 1005.00 1004.83 1005.25 1005.34 1005.49 1005.87 1006.94 1007.74 1008.51 1008.87 1009.28 1009.39 1009.77 1010.27
1023.24 1022.62 1022.15 1021.28 1020.17 1019.42 1018.86 1017.86 1016.91 1015.80 1014.94 1014.14 1013.02 1012.31 1011.77 1010.74 1009.86 1009.27 1008.62 1007.73 1006.94 1005.93 1005.06 1004.53 1004.27 1004.19 1004.10 1004.07 1004.15 1004.30 1004.51 1004.41 1004.66 1004.65 1005.46 1006.16 1007.18 1007.97 1008.02 1008.02 1008.72 1009.79 1009.71
1024.02 1023.08 1022.22 1021.47 1020.65 1019.87 1019.27 1018.29 1017.18 1015.98 1014.87 1013.94 1013.08 1012.12 1011.24 1010.61 1009.94 1009.50 1009.06 1007.99 1007.36 1006.39 1005.48 1004.90 1004.39 1004.07 1003.90 1003.96 1003.93 1003.91 1003.95 1003.74 1004.09 1004.12 1004.90 1005.68 1006.03 1006.59 1007.02 1007.30 1008.09 1009.37 1009.57
1024.72 1023.84 1023.09 1022.28 1021.25 1020.29 1019.53 1018.74 1017.20 1016.20 1014.91 1013.81 1012.89 1012.01 1010.78 1010.04 1009.55 1008.97 1008.33 1007.68 1007.14 1006.50 1005.84 1005.16 1004.55 1004.19 1004.05 1003.87 1003.66 1003.56 1003.43 1003.34 1003.22 1003.58 1003.95 1004.26 1004.83 1005.22 1005.70 1006.90 1007.35 1007.96 1008.15
1024.88 1024.08 1023.13 1022.31 1021.49 1020.48 1019.73 1018.63 1017.56 1016.37 1015.18 1013.71 1012.54 1011.74 1010.81 1010.02 1009.12 1008.52 1007.85 1007.21 1006.62 1006.27 1005.64 1005.08 1004.64 1004.17 1003.83 1003.70 1003.67 1003.46 1003.55 1003.56 1003.27 1002.99 1003.01 1003.33 1003.57 1004.08 1004.59 1005.12 1006.02 1007.21 1008.06
1025.24 1024.47 1023.80 1022.88 1021.74 1020.72 1019.63 1018.47 1017.41 1016.12 1014.93 1013.66 1012.44 1011.33 1010.42 1009.37 1008.91 1008.00 1007.27 1006.74 1006.20 1005.72 1005.35 1004.77 1004.33 1003.94 1003.46 1003.38 1003.35 1003.40 1003.59 1003.46 1003.32 1003.31 1002.99 1003.04 1003.24 1003.73 1004.22 1005.09 1006.01 1006.87 1008.15
1025.87 1025.34 1024.13 1022.91 1021.84 1020.83 1019.72 1018.46 1017.34 1016.27 1014.53 1013.35 1011.69 1010.93 1009.87 1008.75 1008.02 1007.36 1006.79 1006.20 1005.60 1005.13 1004.71 1004.28 1003.84 1003.51 1003.14 1002.86 1002.91 1003.06 1003.30 1003.54 1003.53 1003.54 1003.49 1003.29 1003.41 1003.98 1004.32 1004.51 1004.95 1005.75 1006.98
1026.47 1024.99 1023.78 1022.86 1021.88 1020.71 1019.62 1018.57 1017.16 1015.96 1014.43 1012.64 1011.25 1010.03 1008.98 1008.02 1007.15 1006.56 1006.01 1005.47 1004.89 1004.43 1004.11 1003.74 1003.18 1002.93 1002.79 1002.64 1002.47 1002.67 1002.68 1003.07 1003.28 1003.55 1003.61 1003.94 1004.08 1004.37 1004.53 1004.77 1004.97 1005.35 1006.09
1025.71 1024.67 1023.75 1022.68 1021.75 1020.52 1019.45 1018.08 1017.02 1015.46 1013.54 1012.15 1010.63 1009.24 1008.14 1007.07 1006.46 1006.03 1005.38 1004.63 1004.46 1003.99 1003.45 1003.24 1002.89 1002.62 1002.36 1002.35 1002.37 1002.47 1002.55 1002.96 1003.27 1003.60 1003.87 1004.26 1004.43 1004.75 1004.98 1005.12 1005.37 1005.71 1005.99
1025.94 1024.93 1023.75 1022.59 1021.49 1020.56 1019.48 1018.23 1016.80 1015.24 1013.80 1012.09 1011.04 1009.31 1007.59 1006.59 1005.89 1005.20 1004.68 1004.25 1003.95 1003.57 1003.06 1002.91 1002.76 1002.30 1001.92 1002.01 1002.18 1002.38 1002.57 1002.85 1003.21 1003.58 1003.87 1004.21 1004.52 1004.91 1005.24 1005.54 1005.89 1006.11 1006.54
1026.27 1025.27 1023.86 1022.79 1021.86 1020.77 1019.82 1018.29 1017.09 1015.40 1014.91 1013.59 1012.37 1010.60 1008.44 1006.69 1005.68 1004.92 1004.40 1003.97 1003.64 1003.24 1002.88 1002.58 1002.42 1002.20 1002.11 1002.18 1002.37 1002.58 1002.79 1002.83 1003.03 1003.42 1004.00 1004.51 1004.82 1005.14 1005.49 1005.65 1006.13 1006.52 1007.05
1027.10 1025.85 1024.57 1023.71 1022.52 1021.12 1020.36 1019.10 1018.10 1017.12 1016.26 1015.07 1014.05 1012.21 1010.18 1007.69 1006.00 1005.26 1004.62 1004.18 1003.89 1003.38 1003.20 1002.93 1002.96 1003.26 1003.24 1003.29 1003.50 1003.47 1003.46 1003.39 1003.52 1003.83 1004.17 1004.53 1005.08 1005.43 1005.78 1005.97 1006.34 1006.80 1007.30
1027.63 1026.51 1025.61 1024.46 1023.27 1021.95 1020.82 1019.41 1018.91 1018.04 1017.14 1016.19 1014.98 1013.50 1011.90 1010.22 1007.95 1006.84 1005.99 1005.30 1004.76 1004.07 1004.22 1004.30 1004.53 1004.83 1004.68 1004.64 1004.79 1004.92 1004.67 1004.43 1004.45 1004.72 1004.97 1005.33 1005.53 1005.99 1006.24 1006.38 1006.69 1007.05 1007.49
1028.20 1027.23 1026.24 1025.29 1024.20 1023.08 1021.89 1021.11 1020.08 1018.34 1018.03 1017.16 1015.82 1014.86 1013.34 1012.46 1010.52 1009.02 1008.30 1007.50 1007.23 1006.83 1007.19 1007.23 1006.96 1007.14 1006.95 1006.57 1006.32 1006.17 1006.06 1005.91 1005.45 1005.67 1006.06 1006.29 1006.82 1007.02 1006.94 1007.28 1007.54 1007.61 1007.86
1028.53 1027.51 1026.63 1025.75 1024.98 1024.21 1023.47 1022.39 1021.85 1020.59 1019.56 1018.39 1017.10 1016.11 1014.96 1013.86 1012.85 1011.45 1010.62 1009.21 1009.71 1010.16 1010.71 1010.39 1009.94 1009.66 1009.47 1009.02 1008.58 1008.26 1007.96 1007.62 1007.19 1007.19 1007.31 1007.50 1007.93 1007.96 1008.04 1008.00 1008.13 1008.14 1008.31
1028.96 1027.95 1027.18 1026.34 1025.57 1024.85 1024.42 1023.59 1023.02 1021.88 1021.24 1020.51 1019.08 1017.14 1016.54 1015.75 1015.02 1014.08 1013.52 1013.30 1013.43 1013.47 1013.49 1012.98 1012.64 1012.24 1011.70 1011.18 1010.99 1010.59 1010.04 1009.92 1009.71 1009.33 1009.13 1009.30 1009.43 1009.21 1009.17 1008.96 1008.80 1008.74 1009.11
1029.19 1028.54 1027.82 1027.05 1026.31 1025.69 1025.07 1024.49 1023.90 1022.82 1022.31 1021.83 1020.95 1019.47 1018.64 1017.38 1016.47 1016.49 1016.31 1016.16 1016.01 1015.78 1015.46 1015.35 1015.02 1014.47 1013.87 1013.24 1012.82 1012.46 1012.01 1011.80 1011.63 1011.46 1011.21 1011.12 1010.89 1010.66 1010.48 1010.31 1010.04 1009.99 1010.32
1029.71 1029.02 1028.30 1027.85 1027.32 1026.64 1026.03 1025.33 1024.77 1023.88 1023.27 1023.23 1022.64 1021.43 1020.22 1019.98 1019.42 1018.99 1018.51 1018.09 1017.91 1017.76 1017.33 1016.98 1016.59 1016.17 1015.71 1015.29 1014.69 1014.24 1014.00 1014.03 1013.75 1013.37 1012.99 1012.66 1012.27 1011.82 1011.58 1011.50 1011.60 1011.42 1011.23
1030.16 1029.61 1028.95 1028.67 1027.95 1027.47 1026.82 1026.29 1025.46 1024.97 1024.27 1023.92 1023.52 1022.74 1021.79 1021.43 1021.00 1020.56 1020.05 1019.69 1019.47 1019.17 1018.79 1018.32 1017.97 1017.57 1017.19 1016.77 1016.31 1015.90 1015.56 1015.17 1014.91 1014.59 1014.16 1013.81 1013.36 1013.03 1012.77 1012.47 1012.39 1012.31 1012.21
1030.77 1030.33 1029.71 1029.15 1028.61 1028.11 1027.62 1027.03 1026.49 1025.85 1025.30 1024.80 1024.40 1023.77 1023.17 1022.60 1022.13 1021.75 1021.29 1020.90 1020.59 1020.20 1019.65 1019.21 1018.93 1018.60 1018.25 1017.84 1017.43 1017.16 1016.70 1016.26 1015.83 1015.44 1015.04 1014.61 1014.22 1013.88 1013.70 1013.51 1013.36 1013.20 1013.25
1030.90 1030.78 1030.61 1030.14 1029.47 1029.02 1028.55 1028.08 1027.39 1026.83 1026.37 1025.79 1025.33 1024.83 1024.30 1023.72 1023.16 1022.72 1022.28 1021.81 1021.49 1021.09 1020.56 1020.07 1019.59 1019.36 1018.92 1018.48 1018.03 1017.63 1017.25 1016.75 1016.37 1015.86 1015.51 1015.08 1014.73 1014.48 1014.28 1014.20 1014.20 1014.19 1013.84
1031.45 1031.18 1031.02 1030.77 1030.47 1030.05 1029.54 1028.96 1028.38 1027.74 1027.22 1026.65 1026.12 1025.62 1025.07 1024.55 1024.00 1023.48 1023.03 1022.56 1022.14 1021.72 1021.10 1020.59 1020.11 1019.76 1019.32 1018.90 1018.49 1018.01 1017.42 1017.03 1016.50 1015.97 1015.56 1015.29 1015.13 1015.04 1014.94 1014.79 1014.64 1014.46 1014.22
1031.70 1031.49 1031.23 1030.94 1030.65 1030.31 1030.21 1029.66 1029.10 1028.49 1028.00 1027.31 1026.77 1026.24 1025.68 1025.09 1024.57 1024.09 1023.58 1023.05 1022.55 1022.00 1021.46 1020.91 1020.43 1020.03 1019.54 1019.01 1018.55 1017.98 1017.42 1016.86 1016.20 1015.62 1015.61 1015.54 1015.46 1015.33 1015.21 1015.11 1014.94 1014.75 1014.58
Wind_Speed
13 12 12 12 12 12 11 12 13 14 14 14 14 14 13 12 12 13 15 14 14 15 15 15 17 17 12 12 11 11 12 12 14 11 10 7 6 6 4 3 3 3 3
13 12 11 11 11 11 12 13 14 15 14 15 15 15 13 12 11 13 15 13 15 16 16 16 17 12 16 15 11 14 13 13 12 17 10 6 8 2 3 5 3 2 3
15 14 14 13 14 13 15 14 14 15 15 16 14 14 14 14 12 11 12 14 15 15 15 16 17 15 15 12 13 12 12 11 12 12 12 2 2 1 2 2 3 2 3
14 13 14 14 15 14 16 15 15 16 16 15 15 15 14 15 14 12 10 11 13 12 13 14 15 15 15 15 13 14 11 11 11 11 10 3 2 1 2 2 3 2 2
13 13 13 14 14 15 15 15 16 15 16 17 17 15 15 13 10 13 13 12 12 12 12 12 13 13 16 15 10 11 11 10 10 8 2 2 3 3 6 4 3 2 2
13 13 14 15 15 15 15 16 15 15 15 16 18 17 17 12 18 17 15 11 12 13 12 10 7 7 8 12 12 12 10 8 10 6 4 5 5 4 3 4 4 4 3
12 12 13 14 15 15 15 16 15 16 16 16 15 17 16 15 16 18 18 11 11 12 14 12 9 5 6 6 6 8 9 12 15 7 6 8 5 10 8 4 5 4 3
12 14 15 16 16 15 16 15 15 14 16 16 15 15 15 13 20 19 16 11 10 12 11 10 9 11 7 7 6 5 6 4 4 4 5 6 4 8 9 6 6 5 4
14 14 16 16 17 17 17 17 16 15 16 16 15 16 16 15 21 19 14 9 9 10 10 9 8 9 9 11 7 6 3 2 2 3 3 4 9 12 11 8 6 7 2
16 16 15 16 16 17 17 17 16 15 16 14 16 14 17 17 19 20 15 6 9 8 9 8 10 10 11 11 8 7 7 5 4 2 2 6 7 8 10 2 8 9 4
15 15 14 15 16 16 16 15 16 17 18 16 17 14 15 14 15 21 19 8 7 7 7 8 6 10 12 12 12 6 7 6 6 3 4 3 4 4 3 3 3 4 3
14 14 14 14 13 13 17 14 16 16 16 16 16 14 10 11 14 16 20 17 14 8 8 7 7 11 13 13 9 8 7 8 5 4 4 3 4 3 3 4 5 5 4
14 14 13 14 14 14 14 15 14 14 12 12 12 13 12 10 9 16 20 18 14 8 6 8 14 12 9 7 8 9 8 5 5 4 4 2 3 5 6 6 7 9 9
14 14 13 14 15 14 12 11 13 6 10 11 12 13 13 11 10 7 7 6 7 6 6 5 4 2 4 4 2 4 2 2 3 4 3 4 4 4 4 3 4 4 5
13 12 13 11 12 12 11 11 11 11 14 12 12 12 14 15 9 13 9 5 4 4 1 3 4 4 5 5 5 5 4 3 3 2 4 5 5 5 3 3 4 3 3
11 10 11 10 10 10 10 13 18 22 23 25 27 23 14 28 29 25 27 25 21 11 6 6 7 6 7 6 7 6 7 7 5 4 5 4 4 4 4 3 3 3 4
9 10 9 10 10 10 10 10 13 16 21 25 28 29 29 30 31 27 26 28 32 22 11 10 10 9 9 8 7 7 7 7 7 6 5 5 4 3 3 3 3 3 4
8 9 7 8 9 9 10 9 9 10 12 14 20 24 28 30 32 34 30 25 18 18 12 11 11 11 10 10 9 9 9 8 8 8 7 7 5 3 2 3 2 2 3
7 7 8 7 7 8 8 9 8 9 10 11 12 18 21 28 28 31 31 14 12 12 11 11 10 10 10 10 10 9 9 9 9 8 8 7 6 4 4 4 4 6 4
6 10 8 6 6 7 7 8 8 9 10 10 11 12 12 14 14 14 13 12 11 10 10 10 10 10 10 10 9 9 9 10 9 9 8 7 6 6 7 6 6 4 3
4 4 7 5 6 7 6 7 7 7 8 9 9 12 25 10 10 10 10 10 10 10 10 9 9 9 9 9 9 8 8 8 8 7 7 7 7 6 5 5 5 5 4
4 4 3 3 5 7 7 7 7 7 7 8 8 10 21 9 9 9 9 9 9 8 7 8 8 8 8 9 9 8 8 7 7 7 6 6 6 6 6 5 5 4 4
4 5 4 3 4 7 7 7 7 7 8 8 8 8 8 8 8 8 8 8 8 8 8 7 7 7 7 7 6 7 6 7 6 6 6 5 5 5 5 4 4 4 3
3 4 4 4 3 5 6 7 6 8 8 7 7 8 8 8 8 9 8 7 7 7 7 7 7 9 8 8 6 6 6 7 6 6 8 5 4 4 4 3 4 4 3
3 4 4 4 3 4 5 5 6 6 6 6 6 7 7 7 7 7 7 6 7 7 7 7 6 9 9 11 9 10 10 12 10 10 6 5 5 5 4 4 4 4 4
3 3 3 3 4 3 3 4 5 5 5 6 6 6 6 6 6 6 6 6 7 7 8 6 7 9 10 8 8 12 13 13 12 9 2 1 3 3 2 3 4 3 4
Wind_Direction
359 355 352 350 345 353 350 344 338 332 333 327 322 309 291 267 251 244 245 243 238 236 236 234 232 228 227 227 222 221 226 226 246 250 246 225 206 209 187 151 142 151 158
349 347 349 349 348 349 347 341 338 333 330 325 320 319 309 287 272 259 256 249 245 243 239 236 237 236 236 233 225 228 228 225 235 252 240 218 212 167 160 152 161 168 201
347 344 343 347 348 345 341 338 336 333 328 325 322 319 316 315 305 280 267 260 255 247 243 240 240 238 238 234 232 233 228 229 233 242 250 88 95 165 136 126 150 162 160
344 338 338 343 342 340 334 332 332 330 326 326 322 317 316 312 308 304 316 299 270 256 253 245 244 240 241 240 238 238 230 235 232 238 240 168 151 165 124 154 222 119 167
340 336 333 337 333 332 327 326 324 325 324 321 321 318 315 312 310 325 321 309 301 305 289 251 242 240 241 238 234 241 240 241 240 221 154 145 165 176 197 159 145 164 184
333 331 337 335 333 330 324 322 319 318 319 319 319 315 314 309 308 309 305 304 301 294 288 284 288 289 269 261 258 271 270 243 245 196 192 198 189 218 160 165 123 170 211
330 334 330 326 326 325 322 316 319 316 313 311 309 311 306 303 295 296 295 294 289 287 287 287 288 264 258 267 253 250 246 235 232 203 198 199 202 192 151 174 160 180 177
336 333 333 330 324 321 317 316 314 314 312 310 304 303 299 297 294 286 287 289 280 282 281 280 282 286 259 239 232 233 235 255 254 223 203 195 204 168 173 174 160 112 72
340 333 328 325 322 321 317 318 315 311 309 305 298 299 297 292 290 287 292 284 276 280 281 272 265 270 259 229 218 216 240 262 269 239 213 194 170 163 151 126 151 147 125
336 324 321 321 319 317 315 315 311 307 300 299 294 290 286 287 286 282 283 269 277 280 279 275 263 264 273 232 215 208 214 212 171 115 107 90 101 144 142 113 158 164 128
319 319 323 321 318 313 313 312 310 309 304 300 295 293 287 282 282 282 279 271 263 275 277 283 272 259 268 253 218 197 213 154 168 133 107 98 96 97 94 84 105 140 138
326 324 324 321 319 318 319 317 314 307 307 305 301 298 294 287 275 276 280 273 273 267 268 273 271 269 260 254 230 219 195 157 147 147 143 141 136 123 99 93 85 83 59
327 327 328 329 332 328 325 321 317 316 310 319 327 319 309 301 284 281 283 281 286 282 265 267 276 264 250 253 227 216 174 163 162 164 166 137 118 117 110 96 85 83 74
331 331 335 340 336 334 331 328 323 346 353 349 342 333 318 305 298 290 283 283 292 297 297 285 268 98 82 81 72 95 86 143 156 145 119 106 112 116 114 101 105 99 93
335 333 339 334 337 337 337 341 345 352 359 355 349 342 345 344 320 319 315 320 307 302 38 49 41 33 37 34 31 33 32 44 73 84 130 125 119 112 102 99 100 85 96
335 339 338 334 339 344 345 341 358 2 2 7 11 8 359 7 15 33 38 36 26 36 42 45 48 41 49 47 38 28 29 33 45 59 67 72 79 95 102 87 90 110 119
335 332 336 342 346 348 354 355 344 350 3 3 10 14 17 16 24 29 35 46 41 39 36 30 38 30 25 28 35 39 35 23 36 50 53 55 67 86 82 75 79 89 94
324 332 344 346 349 350 350 354 350 355 351 350 357 13 13 20 25 33 34 39 31 29 30 23 26 25 20 22 24 24 23 20 32 39 42 37 31 47 59 82 85 96 93
335 342 343 341 348 352 350 355 352 360 359 350 345 11 10 13 24 30 31 36 33 28 16 20 20 20 22 23 18 18 30 28 24 26 30 35 17 27 42 39 51 54 64
336 340 346 342 347 353 357 360 353 5 3 358 356 355 6 6 20 19 23 24 24 23 21 17 13 15 15 20 20 16 20 24 23 20 23 23 20 31 26 23 32 44 41
320 321 343 341 350 350 352 358 357 0 10 356 352 348 18 13 13 16 16 21 20 14 12 12 14 15 14 13 14 19 23 19 16 13 13 11 10 21 24 31 19 21 32
327 324 330 338 344 350 351 348 357 356 2 358 348 353 8 11 11 11 12 16 13 10 7 6 12 11 12 9 7 8 8 11 7 3 2 2 6 12 9 17 15 13 9
341 338 336 336 346 348 349 351 351 356 353 355 350 350 357 0 3 4 3 5 4 358 3 5 7 4 6 1 3 0 355 350 344 349 349 350 355 360 1 360 359 357 353
358 351 344 333 346 345 349 343 344 348 346 346 347 346 349 349 351 352 353 354 353 349 353 353 358 357 350 352 348 351 343 342 343 333 336 327 332 339 343 343 336 327 320
355 355 353 337 339 331 332 333 335 334 336 335 336 335 335 336 336 338 338 339 341 337 339 339 341 341 343 336 333 333 330 334 322 311 305 309 317 327 323 315 311 312 311
346 342 328 331 332 327 320 315 316 316 318 322 322 319 319 321 320 320 322 325 332 325 325 323 320 320 322 320 315 318 323 321 303 309 65 15 312 300 291 294 297 293 288